RIO_GRANDE_AIRPORT current weather conditions

sailwx.info

Wind from 290 at 21 knots

Air temperature 6.0° C
Visibility: greater than 5.4 NM
Dewpoint 5.0° C

Last reported at 2019-Jun-16 04:00 UTC.
Time now 2019-Jun-16 04:44 UTC

Location: S 53°48' W 067°45'.
View on Google Maps.

See reports from other nearby stations

  
Tides and Currents Weather Stations Pressure Air Temp Water Temp Dewpoint Dewpoint Depression Visibility Wind Speed Wind Dir Waves Ship Positions
date/time (UTC)wind fromknots sea level pressurealtimeterstation pressurevisibilityair tempwater tempwave heightnotes
2019-Jun-16 04:00 290 21 5.4 6.0
2019-Jun-16 03:00 290 21 5.4 6.0
2019-Jun-16 02:00 290 19 5.4 5.0
2019-Jun-16 01:00 290 20 5.4 6.0
2019-Jun-16 00:00 290 19 5.4 5.0
2019-Jun-15 23:00 290 18 5.4 6.0
2019-Jun-15 22:00 290 17 5.4 4.0
2019-Jun-15 21:00 290 15 5.4 5.0
2019-Jun-15 20:00 290 17 5.4 5.0
2019-Jun-15 19:00 290 15 5.4 5.0
2019-Jun-15 18:00 290 18 5.4 5.0
2019-Jun-15 17:00 320 19 5.4 5.0
2019-Jun-15 16:00 290 18 5.4 3.0
2019-Jun-15 15:00 320 11 5.4 3.0
2019-Jun-15 14:00 320 8 5.4 2.0
2019-Jun-15 13:00 320 8 5.4 2.0
2019-Jun-15 12:00 320 8 5.4-0.0
2019-Jun-15 11:00 290 6 5.4-4.0
2019-Jun-15 10:00 290 5 5.4-3.0
2019-Jun-15 09:00 270 7 5.4-3.0
2019-Jun-15 08:00 290 6 5.4-3.0
2019-Jun-15 07:00 290 6 5.4-3.0
2019-Jun-15 05:30 290 4 5.4-3.0
2019-Jun-15 05:10 0.3-4.0 Shallow fog.
2019-Jun-15 05:00 090 2 5.4-4.0
2019-Jun-15 04:00 250 4 5.4-0.0
2019-Jun-15 03:00 270 7 5.4-1.0
2019-Jun-15 02:00 270 6 5.4-1.0
2019-Jun-15 01:00 290 6 5.4-1.0
2019-Jun-15 00:00 250 6 5.4-0.0
2019-Jun-14 23:00 250 11 5.4 1.0
2019-Jun-14 22:00 270 8 5.4 1.0
2019-Jun-14 21:00 290 7 5.4 1.0
2019-Jun-14 20:00 290 6 5.4 2.0
2019-Jun-14 19:00 250 6 5.4 2.0
2019-Jun-14 18:00 270 9 5.4 1.0
2019-Jun-14 17:00 320 11 5.4 1.0 Light rain.
2019-Jun-14 16:00 320 9 1.6 1.0 Light rain.
2019-Jun-14 15:00 320 8 0.1-0.0 Fog.
2019-Jun-14 14:00 300 6 0.3-0.0 Fog.
2019-Jun-14 13:00 290 8 0.8-0.0 Mist.
2019-Jun-14 12:00 320 7 0.3 1.0 Fog.
2019-Jun-14 11:00 290 8 2.7 1.0 Light drizzle. Mist.
2019-Jun-14 10:00 290 6 3.8 1.0 Light drizzle.
2019-Jun-14 09:00 320 8 5.4 1.0
2019-Jun-14 08:00 290 6 4.9 1.0 Light drizzle.
2019-Jun-14 07:00 340 4 4.9 1.0 Light drizzle.
2019-Jun-14 06:00 290 5 4.9 1.0 Light drizzle.
2019-Jun-14 05:00 290 6 5.4 1.0
2019-Jun-14 04:00 290 6 5.4 1.0